User: anonymous   Login
Location: Pcim
(49.7500°N, 19.9670°E)
Time: 22:16:51
(UTC+02:00)
Language:

CUBEBUG 2 - Orbit

View from above orbital plane
View from above orbital plane
View from above satellite
View from above satellite

Ground track
Ground track

The orbit data is extracted from the following two-line orbital elements,

1 39440U 13066AA  24112.83915591  .00011071  00000-0  13192-2 0  9995
2 39440  97.8095  57.7682 0072731  97.9778 262.9697 14.82570575561188
Epoch (UTC): 21 April 2024 20:08:23
Eccentricity: 0.0072731
inclination: 97.8095°
perigee height: 570 km
apogee height: 672 km
right ascension of ascending node: 57.7682°
argument of perigee: 97.9778°
revolutions per day: 14.82570575
mean anomaly at epoch: 262.9697°
orbit number at epoch: 56118

The dashed part of the orbit path shows where the satellite is in the earth's shadow,  

DLR